Location: Unspecified
(0.0000°N, 0.0000°E)
Time: 09:58:42
(UTC+00:00)

A-11 Canister half - Pass Details

Date: 09 August 2021
Orbit: 1515 x 1685 km, 47.2° (Epoch: 27 September)

Event Time Altitude Azimuth Distance (km) Brightness Sun altitude
Rises 13:35:18 0° 257° (WSW) 4,663 11.8 62.9°
Reaches altitude 10° 13:39:40 10° 275° (W) 3,694 11.5 62.0°
Maximum altitude 13:45:27 18° 314° (NW) 3,131 11.5 60.8°
Drops below altitude 10° 13:51:22 10° 354° (N) 3,757 11.5 59.5°
Sets 13:55:56 0° 12° (NNE) 4,773 11.7 58.6°
